Danville, IN

6:47 AM EST on December 11, 2017 (GMT -0500)
Vermilion County

Weather History for KDNV - April, 2013

Change the Weather History Date:

Saturday, April 6, 2013

  Actual Average (KLAF) Record (KLAF)
Temperature  
Mean Temperature 54 °F -  
Max Temperature 71 °F 56 °F 77 °F (1972)
Min Temperature 38 °F 35 °F 10 °F (1982)
Degree Days  
Heating Degree Days 10    
Growing Degree Days 4 (Base 50)    
Moisture  
Dew Point 33 °F    
Average Humidity 44    
Maximum Humidity 70    
Minimum Humidity 28    
Precipitation  
Precipitation 0.00 in - - ()
Sea Level Pressure  
Sea Level Pressure 29.91 in    
Wind  
Wind Speed 13 mph (SSE)    
Max Wind Speed 33 mph    
Max Gust Speed 41 mph    
Visibility 9 miles    
Events      
Averages and records for this station are not official NWS values.
T = Trace of Precipitation, MM = Missing Value Source: NWS Daily Summary

Daily Weather History Graph

Daily Weather History Graph

Search for Another Location

Airport or City:

Trip Planner

Search our weather history database for the weather conditions in past years. The results will help you decide how hot, cold, wet, or windy it might be!

Date:

Astronomy

Apr. 06, 2013 Rise Set
Actual Time 6:25 AM CDT 7:20 PM CDT
Civil Twilight 5:58 AM CDT 7:47 PM CDT
Nautical Twilight 5:25 AM CDT 8:20 PM CDT
Astronomical Twilight 4:51 AM CDT 8:54 PM CDT
Moon 4:09 AM CDT (4/6) 3:48 PM CDT (4/6)
Length of Visible Light 13h 49m
Length of Day
12h 54m
Waning Crescent, 15% of the Moon is Illuminated
Apr 6
Waning Crescent
Apr 10
New
Apr 18
First Quarter
Apr 25
Full
May 2
Last Quarter

Hourly Weather History & Observations

Time (CDT) Temp. Windchill Dew Point Humidity Pressure Visibility Wind Dir Wind Speed Gust Speed Precip Events Conditions
12:15 AM 38.7 °F 35.2 °F 25.2 °F 58% 30.10 in 10.0 mi East 4.6 mph - N/A   Clear
12:35 AM 38.8 °F 34.6 °F 24.8 °F 57% 30.09 in 10.0 mi East 5.8 mph - N/A   Clear
12:55 AM 39.2 °F 35.0 °F 25.5 °F 58% 30.09 in 10.0 mi ESE 5.8 mph - N/A   Scattered Clouds
1:15 AM 39.4 °F 33.8 °F 25.5 °F 58% 30.09 in 10.0 mi East 8.1 mph - N/A   Scattered Clouds
1:35 AM 39.4 °F 34.5 °F 25.7 °F 58% 30.09 in 10.0 mi East 6.9 mph - N/A   Scattered Clouds
1:55 AM 39.4 °F 35.2 °F 26.1 °F 59% 30.08 in 10.0 mi East 5.8 mph - N/A   Clear
2:15 AM 39.2 °F 35.9 °F 26.8 °F 61% 30.08 in 10.0 mi East 4.6 mph - N/A   Clear
2:35 AM 39.2 °F 35.0 °F 26.6 °F 61% 30.08 in 10.0 mi East 5.8 mph - N/A   Clear
2:55 AM 39.2 °F 33.6 °F 27.3 °F 62% 30.06 in 10.0 mi East 8.1 mph - N/A   Clear
3:15 AM 39.2 °F 35.0 °F 27.7 °F 63% 30.07 in 10.0 mi East 5.8 mph - N/A   Clear
3:35 AM 39.0 °F 34.0 °F 28.2 °F 65% 30.07 in 10.0 mi ENE 6.9 mph - N/A   Clear
3:55 AM 38.8 °F 33.2 °F 28.6 °F 67% 30.06 in 10.0 mi ENE 8.1 mph - N/A   Clear
4:15 AM 38.7 °F 35.2 °F 28.9 °F 68% 30.07 in 10.0 mi ESE 4.6 mph - N/A   Clear
4:35 AM 39.2 °F 35.0 °F 28.9 °F 67% 30.07 in 10.0 mi ESE 5.8 mph - N/A   Clear
4:55 AM 39.2 °F 34.2 °F 29.1 °F 67% 30.05 in 10.0 mi ESE 6.9 mph - N/A   Clear
5:15 AM 39.2 °F 33.6 °F 29.3 °F 68% 30.05 in 10.0 mi ESE 8.1 mph - N/A   Clear
5:35 AM 39.2 °F 34.2 °F 30.0 °F 70% 30.05 in 10.0 mi ESE 6.9 mph - N/A   Clear
5:55 AM 39.6 °F 34.7 °F 30.2 °F 69% 30.05 in 10.0 mi ESE 6.9 mph - N/A   Clear
6:15 AM 39.9 °F 34.5 °F 30.2 °F 68% 30.04 in 10.0 mi ESE 8.1 mph - N/A   Scattered Clouds
6:35 AM 40.5 °F 35.1 °F 30.2 °F 67% 30.04 in 10.0 mi SE 8.1 mph - N/A   Clear
6:55 AM 41.7 °F 36.7 °F 30.0 °F 63% 30.05 in 10.0 mi SE 8.1 mph - N/A   Clear
7:15 AM 42.4 °F 36.5 °F 30.4 °F 62% 30.05 in 10.0 mi SSE 10.4 mph - N/A   Clear
7:35 AM 43.9 °F 37.9 °F 30.2 °F 59% 30.04 in 10.0 mi SE 11.5 mph - N/A   Clear
7:55 AM 45.9 °F 39.7 °F 30.0 °F 54% 30.05 in 10.0 mi SSE 13.8 mph - N/A   Clear
8:15 AM 46.9 °F - 30.2 °F 52% 30.05 in 10.0 mi SSE 10.4 mph 17.3 mph N/A   Clear
8:35 AM 47.8 °F - 30.2 °F 50% 30.05 in 10.0 mi SSE 10.4 mph - N/A   Clear
8:55 AM 49.1 °F - 30.2 °F 48% 30.03 in 10.0 mi SSE 16.1 mph - N/A   Clear
9:15 AM 50.0 °F - 30.0 °F 46% 30.02 in 10.0 mi SSE 17.3 mph 23.0 mph N/A   Clear
9:35 AM 51.8 °F - 30.2 °F 44% 30.00 in 7.0 mi SSE 18.4 mph 24.2 mph N/A   Clear
9:55 AM 54.1 °F - 30.9 °F 41% 30.01 in 10.0 mi SSE 15.0 mph - N/A   Clear
10:15 AM 55.2 °F - 29.7 °F 38% 30.00 in 10.0 mi SSE 15.0 mph 24.2 mph N/A   Clear
10:35 AM 58.5 °F - 31.3 °F 36% 29.99 in 7.0 mi South 19.6 mph - N/A   Clear
10:55 AM 59.4 °F - 31.8 °F 35% 29.99 in 7.0 mi South 19.6 mph 26.5 mph N/A   Clear
11:15 AM 60.6 °F - 32.2 °F 34% 29.98 in 7.0 mi South 18.4 mph 27.6 mph N/A   Clear
11:35 AM 61.0 °F - 32.4 °F 34% 29.97 in 10.0 mi SSE 20.7 mph 28.8 mph N/A   Clear
11:55 AM 62.2 °F - 33.1 °F 34% 29.95 in 7.0 mi South 19.6 mph 28.8 mph N/A   Clear
12:15 PM 64.2 °F - 34.5 °F 33% 29.94 in 7.0 mi South 21.9 mph 27.6 mph N/A   Clear
12:35 PM 65.8 °F - 35.4 °F 32% 29.92 in 7.0 mi South 24.2 mph 29.9 mph N/A   Clear
12:55 PM 66.9 °F - 35.4 °F 31% 29.90 in 7.0 mi South 24.2 mph 33.4 mph N/A   Clear
1:15 PM 68.0 °F - 35.8 °F 31% 29.88 in 7.0 mi South 24.2 mph 33.4 mph N/A   Clear
1:35 PM 68.9 °F - 36.3 °F 30% 29.86 in 7.0 mi South 28.8 mph 34.5 mph N/A   Clear
1:55 PM 69.8 °F - 36.0 °F 29% 29.84 in 7.0 mi South 28.8 mph 36.8 mph N/A   Clear
2:15 PM 70.5 °F - 36.3 °F 29% 29.82 in 7.0 mi SSE 26.5 mph 35.7 mph N/A   Clear
2:35 PM 71.6 °F - 37.4 °F 29% 29.82 in 7.0 mi South 23.0 mph 33.4 mph N/A   Clear
2:55 PM 70.9 °F - 36.0 °F 28% 29.81 in 10.0 mi South 26.5 mph 34.5 mph N/A   Clear
3:15 PM 69.8 °F - 35.8 °F 29% 29.79 in 10.0 mi SSW 29.9 mph 35.7 mph N/A   Clear
3:35 PM 70.5 °F - 36.7 °F 29% 29.78 in 10.0 mi South 29.9 mph 38.0 mph N/A   Clear
3:55 PM 70.2 °F - 37.4 °F 30% 29.76 in 7.0 mi South 25.3 mph 35.7 mph N/A   Clear
4:15 PM 69.8 °F - 37.4 °F 31% 29.75 in 10.0 mi South 20.7 mph 32.2 mph N/A   Clear
4:35 PM 71.4 °F - 37.0 °F 29% 29.75 in 10.0 mi SSW 26.5 mph 39.1 mph N/A   Clear
4:55 PM 70.9 °F - 37.6 °F 30% 29.73 in 7.0 mi SSW 33.4 mph 41.4 mph N/A   Clear
5:15 PM 70.9 °F - 37.6 °F 30% 29.73 in 10.0 mi South 29.9 mph 38.0 mph N/A   Clear
5:35 PM 69.8 °F - 37.4 °F 31% 29.75 in 10.0 mi South 29.9 mph 34.5 mph N/A   Clear
5:55 PM 68.9 °F - 37.0 °F 31% 29.75 in 10.0 mi SSW 24.2 mph 33.4 mph N/A   Clear
6:15 PM 68.0 °F - 37.4 °F 33% 29.75 in 10.0 mi South 24.2 mph 31.1 mph N/A   Clear
6:35 PM 67.6 °F - 37.6 °F 33% 29.74 in 10.0 mi South 20.7 mph 29.9 mph N/A   Clear
6:55 PM 67.1 °F - 36.9 °F 33% 29.74 in 10.0 mi South 24.2 mph 29.9 mph N/A   Clear
7:15 PM 66.7 °F - 36.9 °F 33% 29.73 in 10.0 mi South 20.7 mph 29.9 mph N/A   Clear
7:35 PM 66.2 °F - 36.9 °F 34% 29.73 in 10.0 mi South 20.7 mph 25.3 mph N/A   Clear
7:55 PM 65.8 °F - 36.5 °F 34% 29.70 in 10.0 mi SSE 24.2 mph 28.8 mph N/A   Clear
8:15 PM 65.5 °F - 37.4 °F 35% 29.72 in 10.0 mi South 18.4 mph 25.3 mph N/A   Mostly Cloudy
8:35 PM 65.8 °F - 36.9 °F 34% 29.75 in 10.0 mi SSW 9.2 mph 12.7 mph N/A   Mostly Cloudy
8:55 PM 64.8 °F - 37.0 °F 36% 29.75 in 10.0 mi SSW 16.1 mph 20.7 mph N/A   Scattered Clouds
9:15 PM 64.8 °F - 37.2 °F 36% 29.75 in 10.0 mi SSW 19.6 mph 25.3 mph N/A   Mostly Cloudy
9:35 PM 64.6 °F - 37.4 °F 37% 29.74 in 10.0 mi SSW 20.7 mph 27.6 mph N/A   Overcast
9:55 PM 64.0 °F - 37.9 °F 38% 29.74 in 10.0 mi SSW 23.0 mph 28.8 mph N/A   Overcast
10:15 PM 64.6 °F - 37.4 °F 37% 29.72 in 10.0 mi South 28.8 mph 35.7 mph N/A   Overcast
10:35 PM 64.2 °F - 38.1 °F 38% 29.72 in 10.0 mi SSW 21.9 mph 33.4 mph N/A   Overcast
10:55 PM 63.5 °F - 38.3 °F 39% 29.72 in 10.0 mi SSW 23.0 mph 32.2 mph N/A   Mostly Cloudy
11:15 PM 63.3 °F - 38.5 °F 40% 29.72 in 10.0 mi SSW 20.7 mph 32.2 mph N/A   Scattered Clouds
11:35 PM 62.8 °F - 38.3 °F 40% 29.71 in 10.0 mi SSW 23.0 mph 32.2 mph N/A   Mostly Cloudy
11:55 PM 62.6 °F - 38.5 °F 41% 29.70 in 10.0 mi SSW 24.2 mph 31.1 mph N/A   Scattered Clouds